User: anonymous   Login
Location: Dammartin
(48.9032°N, 1.6195°E)
Time: 19:04:48
(UTC+00:00)
Language:

AAUSAT CUBESAT 2 - Orbit

View from above orbital plane
View from above orbital plane
View from above satellite
View from above satellite

Ground track
Ground track

The orbit data is extracted from the following two-line orbital elements,

1 32788U 08021F   25109.44029948  .00339152  00000-0  23902-2 0  9997
2 32788  97.6004 105.4654 0009138 131.0434 229.1620 15.73053822925428
Epoch (UTC): 19 April 2025 10:34:01
Eccentricity: 0.0009138
inclination: 97.6004°
perigee height: 344 km
apogee height: 356 km
right ascension of ascending node: 105.4654°
argument of perigee: 131.0434°
revolutions per day: 15.73053822
mean anomaly at epoch: 229.1620°
orbit number at epoch: 92542

The dashed part of the orbit path shows where the satellite is in the earth's shadow,  

DLR